Orbital Elements at Epoch 2459000.5 (2020-May-31.0) TDB
Reference: JPL 14 (heliocentric ecliptic J2000)
Element | Value | Uncertainty (1-sigma) | Units |
e | .07321772491551823 | 3.4978e-08 | |
a | 2.210645869372266 | 1.0815e-08 | au |
q | 2.048787408222941 | 7.7188e-08 | au |
i | .7561280314129023 | 5.1829e-06 | deg |
node | 192.3560483654715 | 0.0003308 | deg |
peri | 259.659949537693 | 0.00033309 | deg |
M | 165.5753758602873 | 3.8595e-05 | deg |
tp | 2458448.333008082407 (2018-Nov-25.83300808) | 0.00012853 | TDB |
period | 1200.541542228262 3.29 | 8.8101e-06 2.412e-08 | d yr |
n | .2998646755128715 | 2.2005e-09 | deg/d |
Q | 2.372504330521591 | 1.1607e-08 | au |
|
| | Orbit Determination Parameters
Additional Information
|